Location: Newark
(42.9858°N, 0.6717°E)
Time: 18:25:09
(UTC+00:00)

S-56A Canister/Altair - Pass Details

Date: 24 November 2019
Orbit: 633 x 2499 km, 38.9° (Epoch: 10 December)

Event Time Altitude Azimuth Distance (km) Brightness Sun altitude
Rises 20:54:13 0° 279° (W) 4,246 12.0 -48.2°
Reaches altitude 10° 20:58:11 10° 265° (W) 2,934 10.9 -48.9°
Enters shadow 20:59:09 13° 260° (W) 2,647 10.6 -49.0°
Maximum altitude 21:03:06 21° 219° (SW) 1,859 - -49.7°
Drops below altitude 10° 21:07:01 10° 169° (S) 2,270 - -50.4°
Sets 21:09:39 0° 153° (SSE) 3,048 - -50.8°
